Тбилиси (UGTB)

tbilisi-port

UGTB, Температура в порту: C, qnh:1023 hPa.

 

Аэропорт Тбилиси

IATA: TBS, ICAO: UGTB

Схемы: JEPPESEN

МЕТАР:  UGTB 182000Z VRB02KT 7000 NSC 03/01 Q1023 R13R/CLRD70 NOSIG

Международный аэропорт Тбилиси имени Шота Руставели — главный аэропорт Грузии, расположен недалеко от столицы Тбилиси с восточной стороны. В феврале 2007 года была завершена реконструкция аэропорта. Были построены новый международный терминал, паркинг, усовершенствованы перрон, рулёжные дорожки и взлётно-посадочные полосы, а также приобретено погрузочно-разгрузочное оборудование. Пропускная способность нового здания терминала — 2,8 млн пассажиров в год.

Взлётно-посадочные полосы (ВПП)
Номер Размеры Покрытие
13R/31L 3000 м бетон